This demonstration page uses our WeatherBlox Daily Observations layout. Learn more.

Left ArrowRight Arrow

Hourly Observations for July 31, 2022

Temp ( °F °C ) Dew Point ( °F °C ) Humidity (%) Winds ( mph kmh ) Pressure ( in mb ) Visibility ( mi km ) Precip ( " mm )
12:53 am 00:53 Mostly Cloudy 88 31.1 69 20.6 54 54 SSE 12 19 30.00 1016 10 16 0.00 0.00
1:53 am 01:53 Clear 87 30.6 69 20.6 55 55 S 10 17 30.00 1016 10 16 0.00 0.00
2:53 am 02:53 Mostly Cloudy 86 30 70 21.1 59 59 S 10 17 29.99 1016 10 16 0.00 0.00
3:53 am 03:53 Mostly Cloudy 86 30 69 20.6 57 57 S 8 13 29.99 1016 10 16 0.00 0.00
4:53 am 04:53 Mostly Cloudy 86 30 66 18.9 51 51 S 12 19 29.99 1016 10 16 0.00 0.00
5:53 am 05:53 Mostly Cloudy 85 29.4 65 18.3 51 51 S 10 17 29.99 1016 10 16 0.00 0.00
6:53 am 06:53 Mostly Cloudy 84 28.9 64 17.8 51 51 S 10 17 30.02 1017 10 16 0.00 0.00
7:53 am 07:53 Mostly Cloudy 85 29.4 65 18.3 51 51 SSW 9 15 30.03 1017 10 16 0.00 0.00
8:53 am 08:53 Mostly Cloudy 86 30 65 18.3 49 49 S 12 19 30.05 1018 10 16 0.00 0.00
9:53 am 09:53 Partly Cloudy 88 31.1 65 18.3 46 46 SSW 10 17 30.05 1018 10 16 0.00 0.00
10:53 am 10:53 Partly Cloudy 91 32.8 65 18.3 42 42 SW 12 19 30.06 1018 10 16 0.00 0.00
11:53 am 11:53 Mostly Cloudy 93 33.9 63 17.2 37 37 WSW 9 15 30.05 1018 10 16 0.00 0.00
12:53 pm 12:53 Partly Cloudy 98 36.7 62 16.7 31 31 SW 6 9 30.04 1017 10 16 0.00 0.00
1:53 pm 13:53 Partly Cloudy 99 37.2 64 17.8 32 32 undefined N/A 30.01 1016 10 16 0.00 0.00
2:53 pm 14:53 Partly Cloudy 101 38.3 62 16.7 28 28 SE 8 13 29.98 1015 10 16 0.00 0.00
3:53 pm 15:53 Partly Cloudy 102 38.9 64 17.8 29 29 S 8 13 29.97 1015 10 16 0.00 0.00
4:53 pm 16:53 Partly Cloudy 102 38.9 64 17.8 29 29 S 10 17 29.96 1014 10 16 0.00 0.00
5:53 pm 17:53 Partly Cloudy 101 38.3 63 17.2 29 29 S 7 11 29.95 1014 10 16 0.00 0.00
6:53 pm 18:53 Partly Cloudy 100 37.8 63 17.2 30 30 SSE 13 20 29.94 1014 10 16 0.00 0.00
7:53 pm 19:53 Mostly Sunny 98 36.7 62 16.7 31 31 SSE 9 15 29.95 1014 10 16 0.00 0.00
8:53 pm 20:53 Mostly Clear 97 36.1 62 16.7 32 32 SSE 9 15 29.96 1014 10 16 0.00 0.00
9:53 pm 21:53 Mostly Clear 96 35.6 63 17.2 34 34 SSE 13 20 29.97 1015 10 16 0.00 0.00
10:53 pm 22:53 Mostly Clear 94 34.4 63 17.2 36 36 SSE 9 15 29.98 1015 10 16 0.00 0.00
11:53 pm 23:53 Partly Cloudy 92 33.3 62 16.7 37 37 S 13 20 29.98 1015 10 16 0.00 0.00

Powered by AerisWeather